Карточка аэропорта URMG

Внимание!
Информация на этой странице в стадии наполнения.
Если вы не увидели какой-то информации, или заметили неточность - пожалуйста сообщите нам!
Спасибо!
Команда RU-STAFF
Название аэропорта Грозный
Название аэропорта (англ.)Grozniy
Превышение545 ft. (166.1 m.)
Координаты43°23.292', 45°41.988'
Высота перехода1900 m
Эшелон переходаFL80
Коды ответчика2410-2417
Зона ОрВДРостов-на-Дону РПИ (URRV)
Данные METARURMG 220730Z 13006MPS CAVOK 33/13 Q1007 R08/090070 NOSIG RMK QFE741/0988
Проноз погоды (TAF)URMG 220500Z 2206/2215 08003G08MPS CAVOK BECMG 2207/2209 08006G14MPS
NOTAMshow/hide NOTAM
AWOS   TABLE

Информация о ВПП

ВПП Длина ВПП (м.) Покрытие Курс ВПП Частота ILS
082505Асфальтобетон80 
262505Асфальтобетон260108.7

Диспетчерские позиции

Позывной Наименование органа УВД Частота
URMG_R_APPГрозный-Вышка120.200
URMG_TWRГрозный-Старт119.0



Спутниковое изображение